| time (UTC) | temp C | wind direction | speed KPH | gust KPH | rain 1hr cm | rain 24hr cm | rain mn cm | humidity % | barometer mb |
| 20260504081015 | 14 | 117 | 3.2 | 8.0 | 0.00 | 0.00 | 0.00 | 54 | 1014.2 |
| 20260504050016 | 16 | 128 | 4.8 | 12.9 | 0.00 | 0.00 | 0.00 | 47 | 1014.7 |
| 20260504045056 | 16 | 124 | 4.8 | 17.7 | 0.00 | 0.00 | 0.00 | 47 | 1014.9 |
| 20260504044016 | 15 | 116 | 3.2 | 9.7 | 0.00 | 0.00 | 0.00 | 47 | 1015.1 |
| 20260504043015 | 15 | 120 | 3.2 | 11.3 | 0.00 | 0.00 | 0.00 | 47 | 1015.3 |
| 20260504042036 | 16 | 133 | 3.2 | 6.4 | 0.00 | 0.00 | 0.00 | 46 | 1015.4 |
| 20260504041015 | 16 | 123 | 1.6 | 9.7 | 0.00 | 0.00 | 0.00 | 45 | 1015.5 |
| 20260504040016 | 16 | 113 | 1.6 | 8.0 | 0.00 | 0.00 | 0.00 | 44 | 1015.6 |
| 20260504035016 | 16 | 120 | 1.6 | 6.4 | 0.00 | 0.00 | 0.00 | 43 | 1015.8 |
| 20260504034016 | 16 | 121 | 3.2 | 6.4 | 0.00 | 0.00 | 0.00 | 43 | 1015.8 |
| 20260504033036 | 16 | 145 | 3.2 | 6.4 | 0.00 | 0.00 | 0.00 | 42 | 1015.8 |
| 20260504032016 | 16 | 120 | 1.6 | 4.8 | 0.00 | 0.00 | 0.00 | 42 | 1015.9 |
| 20260504031015 | 16 | 122 | 3.2 | 8.0 | 0.00 | 0.00 | 0.00 | 42 | 1016.0 |
| 20260504030036 | 16 | 119 | 1.6 | 4.8 | 0.00 | 0.00 | 0.00 | 41 | 1015.9 |
| 20260504025015 | 16 | 116 | 3.2 | 6.4 | 0.00 | 0.00 | 0.00 | 41 | 1015.9 |
| 20260504024036 | 16 | 115 | 3.2 | 6.4 | 0.00 | 0.00 | 0.00 | 41 | 1016.0 |
| 20260504023015 | 16 | 108 | 1.6 | 4.8 | 0.00 | 0.00 | 0.00 | 41 | 1015.9 |
| 20260504022016 | 16 | 103 | 1.6 | 4.8 | 0.00 | 0.00 | 0.00 | 41 | 1015.8 |
| 20260504021015 | 16 | 123 | 1.6 | 6.4 | 0.00 | 0.00 | 0.00 | 41 | 1015.7 |
| 20260504020016 | 16 | 121 | 0.0 | 8.0 | 0.00 | 0.00 | 0.00 | 41 | 1015.7 |
| 20260504015016 | 16 | 114 | 1.6 | 4.8 | 0.00 | 0.00 | 0.00 | 41 | 1015.5 |
| 20260504014016 | 16 | 113 | 1.6 | 6.4 | 0.00 | 0.00 | 0.00 | 41 | 1015.3 |
| 20260504013016 | 16 | 103 | 1.6 | 4.8 | 0.00 | 0.00 | 0.00 | 41 | 1015.1 |
| 20260504012016 | 16 | 111 | 1.6 | 3.2 | 0.00 | 0.00 | 0.00 | 41 | 1015.2 |
| 20260504011016 | 17 | 132 | 1.6 | 4.8 | 0.00 | 0.00 | 0.00 | 41 | 1015.4 |
| 20260504010016 | 17 | 129 | 1.6 | 6.4 | 0.00 | 0.00 | 0.00 | 40 | 1015.5 |
| 20260504005016 | 17 | 140 | 0.0 | 4.8 | 0.00 | 0.00 | 0.00 | 40 | 1015.6 |
| 20260504004016 | 17 | 206 | 0.0 | 4.8 | 0.00 | 0.00 | 0.00 | 39 | 1015.6 |
| 20260504003015 | 17 | 99 | 0.0 | 3.2 | 0.00 | 0.00 | 0.00 | 38 | 1015.4 |
| 20260504002016 | 17 | 128 | 0.0 | 4.8 | 0.00 | 0.00 | 0.00 | 37 | 1015.4 |
| 20260504001016 | 18 | 135 | 1.6 | 6.4 | 0.00 | 0.00 | 0.00 | 37 | 1015.6 |
| 20260504000016 | 18 | 123 | 1.6 | 8.0 | 0.00 | 0.00 | 0.00 | 36 | 1015.7 |
| 20260503235016 | 18 | 143 | 3.2 | 11.3 | 0.00 | 0.00 | 0.00 | 36 | 1015.9 |
| 20260503234016 | 18 | 153 | 1.6 | 8.0 | 0.00 | 0.00 | 0.00 | 36 | 1016.0 |
| 20260503233016 | 18 | 146 | 1.6 | 8.0 | 0.00 | 0.00 | 0.00 | 36 | 1016.1 |
| 20260503232036 | 18 | 255 | 0.0 | 6.4 | 0.00 | 0.00 | 0.00 | 37 | 1016.1 |
| 20260503231036 | 18 | 134 | 3.2 | 11.3 | 0.00 | 0.00 | 0.00 | 35 | 1016.1 |
| 20260503230016 | 19 | 241 | 3.2 | 8.0 | 0.00 | 0.00 | 0.00 | 36 | 1016.2 |
| 20260503225016 | 20 | 128 | 4.8 | 11.3 | 0.00 | 0.00 | 0.00 | 35 | 1016.2 |
| 20260503224036 | 20 | 55 | 1.6 | 6.4 | 0.00 | 0.03 | 0.00 | 36 | 1016.1 |
| 20260503223016 | 19 | 0 | 1.6 | 6.4 | 0.00 | 0.05 | 0.00 | 37 | 1016.4 |
| 20260503222016 | 19 | 141 | 1.6 | 6.4 | 0.00 | 0.05 | 0.00 | 36 | 1016.5 |
| 20260503221016 | 18 | 283 | 1.6 | 8.0 | 0.00 | 0.05 | 0.00 | 37 | 1016.7 |
| 20260503220036 | 18 | 127 | 8.0 | 12.9 | 0.00 | 0.05 | 0.00 | 35 | 1016.8 |
| 20260503215016 | 19 | 321 | 4.8 | 12.9 | 0.00 | 0.05 | 0.00 | 35 | 1016.9 |
| 20260503214016 | 19 | 274 | 1.6 | 4.8 | 0.00 | 0.05 | 0.00 | 35 | 1017.0 |
| 20260503213536 | 19 | 302 | 1.6 | 8.0 | 0.00 | 0.05 | 0.00 | 35 | 1017.0 |
| 20260503212516 | 19 | 161 | 3.2 | 12.9 | 0.00 | 0.05 | 0.00 | 34 | 1017.3 |
| 20260503211515 | 19 | 294 | 4.8 | 11.3 | 0.00 | 0.05 | 0.00 | 35 | 1017.5 |
| 20260503210516 | 19 | 287 | 3.2 | 11.3 | 0.00 | 0.05 | 0.00 | 34 | 1017.6 |
| 20260503205515 | 20 | 201 | 3.2 | 8.0 | 0.00 | 0.05 | 0.00 | 35 | 1017.8 |
| 20260503204516 | 19 | 304 | 1.6 | 6.4 | 0.00 | 0.05 | 0.00 | 34 | 1017.9 |
| 20260503203515 | 19 | 310 | 3.2 | 6.4 | 0.00 | 0.05 | 0.00 | 36 | 1017.9 |
| 20260503202516 | 19 | 286 | 3.2 | 11.3 | 0.00 | 0.05 | 0.00 | 35 | 1018.3 |
| 20260503201515 | 19 | 285 | 3.2 | 4.8 | 0.00 | 0.05 | 0.00 | 35 | 1018.4 |
| 20260503200516 | 18 | 99 | 1.6 | 11.3 | 0.00 | 0.05 | 0.00 | 36 | 1018.7 |
| 20260503195515 | 18 | 273 | 4.8 | 12.9 | 0.00 | 0.05 | 0.00 | 35 | 1018.9 |
| 20260503194516 | 18 | 319 | 3.2 | 8.0 | 0.00 | 0.05 | 0.00 | 35 | 1019.0 |
| 20260503193515 | 19 | 278 | 3.2 | 9.7 | 0.00 | 0.05 | 0.00 | 36 | 1019.1 |
| 20260503192516 | 19 | 305 | 3.2 | 12.9 | 0.00 | 0.05 | 0.00 | 35 | 1019.2 |
| 20260503191516 | 18 | 310 | 1.6 | 8.0 | 0.00 | 0.05 | 0.00 | 37 | 1019.2 |
| 20260503190516 | 18 | 241 | 1.6 | 4.8 | 0.00 | 0.05 | 0.00 | 37 | 1019.4 |
| 20260503185517 | 17 | 301 | 3.2 | 9.7 | 0.00 | 0.05 | 0.00 | 37 | 1019.7 |
| 20260503184516 | 17 | 342 | 3.2 | 6.4 | 0.00 | 0.05 | 0.00 | 39 | 1019.8 |
| 20260503183516 | 17 | 346 | 3.2 | 8.0 | 0.00 | 0.05 | 0.00 | 38 | 1020.0 |
| 20260503182516 | 17 | 293 | 3.2 | 9.7 | 0.00 | 0.05 | 0.00 | 38 | 1020.0 |
| 20260503181516 | 17 | 300 | 3.2 | 8.0 | 0.00 | 0.05 | 0.00 | 37 | 1020.0 |
| 20260503180536 | 16 | 314 | 1.6 | 8.0 | 0.00 | 0.05 | 0.00 | 38 | 1020.2 |
| 20260503175516 | 16 | 308 | 3.2 | 6.4 | 0.00 | 0.05 | 0.00 | 37 | 1020.2 |
| 20260503174516 | 16 | 303 | 1.6 | 8.0 | 0.00 | 0.05 | 0.00 | 35 | 1020.4 |
| 20260503173516 | 16 | 272 | 1.6 | 6.4 | 0.00 | 0.05 | 0.00 | 37 | 1020.5 |
| 20260503172516 | 16 | 309 | 1.6 | 9.7 | 0.00 | 0.05 | 0.00 | 37 | 1020.6 |
| 20260503171516 | 16 | 271 | 0.0 | 3.2 | 0.00 | 0.05 | 0.00 | 37 | 1020.8 |
| 20260503170536 | 15 | 317 | 3.2 | 6.4 | 0.00 | 0.05 | 0.00 | 38 | 1021.0 |
| 20260503150516 | 11 | 38 | 0.0 | 6.4 | 0.00 | 0.05 | 0.00 | 45 | 1021.8 |
| 20260503130537 | 6 | 0.0 | 0.0 | 0.00 | 0.05 | 0.00 | 86 | 1021.6 | |
| 20260503110516 | 6 | 0.0 | 0.0 | 0.00 | 0.05 | 0.00 | 86 | 1020.4 |